User: anonymous   Login
Location: Kunchanapalle
(16.4623°N, 80.6176°E)
Time: 09:22:14
(UTC+00:00)
Language:

Cosmos 2228 Rocket - Orbit

View from above orbital plane
View from above orbital plane
View from above satellite
View from above satellite

Ground track
Ground track

The orbit data is extracted from the following two-line orbital elements,

1 22287U 92094B   20293.80483216 +.00000063 +00000-0 +55415-5 0  9997
2 22287 082.5281 021.0149 0023269 296.4871 063.3954 14.78156426498864
Epoch (UTC): 19 October 2020 19:18:57
Eccentricity: 0.0023269
inclination: 82.5281°
perigee height: 619 km
apogee height: 651 km
right ascension of ascending node: 21.0149°
argument of perigee: 296.4871°
revolutions per day: 14.78156426
mean anomaly at epoch: 63.3954°
orbit number at epoch: 49886

The dashed part of the orbit path shows where the satellite is in the earth's shadow,  

DLR